<?xml version='1.0' encoding='UTF-8'?>
<gpx xmlns="http://www.topografix.com/GPX/1/1" creator="www.balnam.be" version="1.1" xmlns:xsi="http://www.w3.org/2001/XMLSchema-instance" xsi:schemaLocation="http://www.topografix.com/GPX/1/1 http://www.topografix.com/GPX/1/1/gpx.xsd">
<trk>
<name>hbnbn10</name>
<cmt>v</cmt>
<desc>Bernissart Chemin n°10 </desc>
<link href="https://chemins.be/bernissart/chemin/10"/><trkseg>
<trkpt lat="50.473900" lon="3.649068"><time>2026-05-03T00:05:03Z</time></trkpt>
<trkpt lat="50.473687" lon="3.647862"><time>2026-05-03T00:15:03Z</time></trkpt>
</trkseg>
</trk>
<trk>
<name>hbnbn12</name>
<cmt>v</cmt>
<desc>Bernissart Chemin n°12 </desc>
<link href="https://chemins.be/bernissart/chemin/12"/><trkseg>
<trkpt lat="50.475151" lon="3.660207"><time>2026-05-03T00:05:03Z</time></trkpt>
<trkpt lat="50.475001" lon="3.659649"><time>2026-05-03T00:15:03Z</time></trkpt>
<trkpt lat="50.474004" lon="3.656194"><time>2026-05-03T00:25:03Z</time></trkpt>
<trkpt lat="50.473281" lon="3.655486"><time>2026-05-03T00:35:03Z</time></trkpt>
<trkpt lat="50.472065" lon="3.654456"><time>2026-05-03T00:45:03Z</time></trkpt>
<trkpt lat="50.471369" lon="3.653233"><time>2026-05-03T00:55:03Z</time></trkpt>
</trkseg>
</trk>
<trk>
<name>hbnbn13</name>
<cmt>v</cmt>
<desc>Bernissart Chemin n°13 Rue de Valenciennes</desc>
<link href="https://chemins.be/bernissart/chemin/13"/><trkseg>
<trkpt lat="50.479430" lon="3.657128"><time>2026-05-03T00:05:03Z</time></trkpt>
<trkpt lat="50.480934" lon="3.657078"><time>2026-05-03T00:15:03Z</time></trkpt>
</trkseg></trk>
<trk>
<name>hbnbn13</name>
<cmt>r</cmt>
<desc>Bernissart Chemin n°13 Rue de Valenciennes</desc>
<link href="https://chemins.be/bernissart/chemin/13"/><trkseg>
<trkpt lat="50.480934" lon="3.657078"><time>2026-05-03T00:15:03Z</time></trkpt>
<trkpt lat="50.480977" lon="3.656426"><time>2026-05-03T00:25:03Z</time></trkpt>
</trkseg></trk>
<trk>
<name>hbnbn13</name>
<cmt>v</cmt>
<desc>Bernissart Chemin n°13 Rue de Valenciennes</desc>
<link href="https://chemins.be/bernissart/chemin/13"/><trkseg>
<trkpt lat="50.480977" lon="3.656426"><time>2026-05-03T00:25:03Z</time></trkpt>
<trkpt lat="50.481880" lon="3.656620"><time>2026-05-03T00:35:03Z</time></trkpt>
</trkseg></trk>
<trk>
<name>hbnbn13</name>
<cmt>q</cmt>
<desc>Bernissart Chemin n°13 Rue de Valenciennes</desc>
<link href="https://chemins.be/bernissart/chemin/13"/><trkseg>
<trkpt lat="50.481880" lon="3.656620"><time>2026-05-03T00:35:03Z</time></trkpt>
<trkpt lat="50.484613" lon="3.658844"><time>2026-05-03T00:45:03Z</time></trkpt>
</trkseg>
</trk>
<trk>
<name>hbnbn15</name>
<cmt>v</cmt>
<desc>Bernissart Chemin n°15 </desc>
<link href="https://chemins.be/bernissart/chemin/15"/><trkseg>
<trkpt lat="50.469049" lon="3.646581"><time>2026-05-03T00:05:03Z</time></trkpt>
<trkpt lat="50.468290" lon="3.644641"><time>2026-05-03T00:15:03Z</time></trkpt>
<trkpt lat="50.467869" lon="3.642393"><time>2026-05-03T00:25:03Z</time></trkpt>
<trkpt lat="50.466978" lon="3.639466"><time>2026-05-03T00:35:03Z</time></trkpt>
</trkseg>
</trk>
<trk>
<name>hbnbn16</name>
<cmt>r</cmt>
<desc>Bernissart Chemin n°16 Rue du Marais</desc>
<link href="https://chemins.be/bernissart/chemin/16"/><trkseg>
<trkpt lat="50.464607" lon="3.649218"><time>2026-05-03T00:05:03Z</time></trkpt>
<trkpt lat="50.464236" lon="3.650553"><time>2026-05-03T00:15:03Z</time></trkpt>
<trkpt lat="50.463717" lon="3.651274"><time>2026-05-03T00:25:03Z</time></trkpt>
<trkpt lat="50.463673" lon="3.652212"><time>2026-05-03T00:35:03Z</time></trkpt>
</trkseg>
</trk>
<trk>
<name>hbnbn18</name>
<cmt>v</cmt>
<desc>Bernissart Chemin n°18 </desc>
<link href="https://chemins.be/bernissart/chemin/18"/><trkseg>
<trkpt lat="50.481881" lon="3.666539"><time>2026-05-03T00:05:03Z</time></trkpt>
<trkpt lat="50.481714" lon="3.666533"><time>2026-05-03T00:15:03Z</time></trkpt>
</trkseg></trk>
<trk>
<name>hbnbn18</name>
<cmt>s</cmt>
<desc>Bernissart Chemin n°18 </desc>
<link href="https://chemins.be/bernissart/chemin/18"/><trkseg>
<trkpt lat="50.481714" lon="3.666533"><time>2026-05-03T00:15:03Z</time></trkpt>
<trkpt lat="50.481044" lon="3.666523"><time>2026-05-03T00:25:03Z</time></trkpt>
<trkpt lat="50.480618" lon="3.666851"><time>2026-05-03T00:35:03Z</time></trkpt>
<trkpt lat="50.480328" lon="3.666598"><time>2026-05-03T00:45:03Z</time></trkpt>
</trkseg>
</trk>
<trk>
<name>hbnbn2</name>
<cmt>v</cmt>
<desc>Bernissart Chemin n°2 </desc>
<link href="https://chemins.be/bernissart/chemin/2"/><trkseg>
<trkpt lat="50.479121" lon="3.634916"><time>2026-05-03T00:05:03Z</time></trkpt>
<trkpt lat="50.478980" lon="3.634298"><time>2026-05-03T00:15:03Z</time></trkpt>
<trkpt lat="50.478330" lon="3.632297"><time>2026-05-03T00:25:03Z</time></trkpt>
<trkpt lat="50.477920" lon="3.631185"><time>2026-05-03T00:35:03Z</time></trkpt>
</trkseg>
</trk>
<trk>
<name>hbnbn20</name>
<cmt>v</cmt>
<desc>Bernissart Sentier n°20 </desc>
<link href="https://chemins.be/bernissart/sentier/20"/><trkseg>
<trkpt lat="50.481956" lon="3.654180"><time>2026-05-03T00:05:03Z</time></trkpt>
<trkpt lat="50.481608" lon="3.652163"><time>2026-05-03T00:15:03Z</time></trkpt>
<trkpt lat="50.481198" lon="3.651417"><time>2026-05-03T00:25:03Z</time></trkpt>
<trkpt lat="50.481003" lon="3.650698"><time>2026-05-03T00:35:03Z</time></trkpt>
</trkseg>
</trk>
<trk>
<name>hbnbn21</name>
<cmt>q</cmt>
<desc>Bernissart Sentier n°21 Rue Grande / Rue Sarin</desc>
<link href="https://chemins.be/bernissart/sentier/21"/><trkseg>
<trkpt lat="50.472339" lon="3.639479"><time>2026-05-03T00:05:03Z</time></trkpt>
<trkpt lat="50.472216" lon="3.642068"><time>2026-05-03T00:15:03Z</time></trkpt>
<trkpt lat="50.472403" lon="3.643870"><time>2026-05-03T00:25:03Z</time></trkpt>
<trkpt lat="50.472790" lon="3.645151"><time>2026-05-03T00:35:03Z</time></trkpt>
</trkseg></trk>
<trk>
<name>hbnbn21</name>
<cmt>r</cmt>
<desc>Bernissart Sentier n°21 Rue Grande / Rue Sarin</desc>
<link href="https://chemins.be/bernissart/sentier/21"/><trkseg>
<trkpt lat="50.472790" lon="3.645151"><time>2026-05-03T00:35:03Z</time></trkpt>
<trkpt lat="50.472512" lon="3.646002"><time>2026-05-03T00:45:03Z</time></trkpt>
</trkseg></trk>
<trk>
<name>hbnbn21</name>
<cmt>v</cmt>
<desc>Bernissart Sentier n°21 Rue Grande / Rue Sarin</desc>
<link href="https://chemins.be/bernissart/sentier/21"/><trkseg>
<trkpt lat="50.472512" lon="3.646002"><time>2026-05-03T00:45:03Z</time></trkpt>
<trkpt lat="50.473100" lon="3.646429"><time>2026-05-03T00:55:03Z</time></trkpt>
<trkpt lat="50.473304" lon="3.646909"><time>2026-05-03T01:05:03Z</time></trkpt>
<trkpt lat="50.473635" lon="3.647836"><time>2026-05-03T01:15:03Z</time></trkpt>
</trkseg></trk>
<trk>
<name>hbnbn21</name>
<cmt>r</cmt>
<desc>Bernissart Sentier n°21 Rue Grande / Rue Sarin</desc>
<link href="https://chemins.be/bernissart/sentier/21"/><trkseg>
<trkpt lat="50.473635" lon="3.647836"><time>2026-05-03T01:15:03Z</time></trkpt>
<trkpt lat="50.474618" lon="3.647708"><time>2026-05-03T01:25:03Z</time></trkpt>
</trkseg></trk>
<trk>
<name>hbnbn21</name>
<cmt>v</cmt>
<desc>Bernissart Sentier n°21 Rue Grande / Rue Sarin</desc>
<link href="https://chemins.be/bernissart/sentier/21"/><trkseg>
<trkpt lat="50.474618" lon="3.647708"><time>2026-05-03T01:25:03Z</time></trkpt>
<trkpt lat="50.474711" lon="3.648282"><time>2026-05-03T01:35:03Z</time></trkpt>
<trkpt lat="50.475103" lon="3.649582"><time>2026-05-03T01:45:03Z</time></trkpt>
</trkseg></trk>
<trk>
<name>hbnbn21</name>
<cmt>r</cmt>
<desc>Bernissart Sentier n°21 Rue Grande / Rue Sarin</desc>
<link href="https://chemins.be/bernissart/sentier/21"/><trkseg>
<trkpt lat="50.475103" lon="3.649582"><time>2026-05-03T01:45:03Z</time></trkpt>
<trkpt lat="50.475296" lon="3.649815"><time>2026-05-03T01:55:03Z</time></trkpt>
<trkpt lat="50.476139" lon="3.650486"><time>2026-05-03T02:05:03Z</time></trkpt>
</trkseg></trk>
<trk>
<name>hbnbn21</name>
<cmt>q</cmt>
<desc>Bernissart Sentier n°21 Rue Grande / Rue Sarin</desc>
<link href="https://chemins.be/bernissart/sentier/21"/><trkseg>
<trkpt lat="50.476139" lon="3.650486"><time>2026-05-03T02:05:03Z</time></trkpt>
<trkpt lat="50.476642" lon="3.650846"><time>2026-05-03T02:15:03Z</time></trkpt>
<trkpt lat="50.478754" lon="3.651701"><time>2026-05-03T02:25:03Z</time></trkpt>
<trkpt lat="50.479015" lon="3.651711"><time>2026-05-03T02:35:03Z</time></trkpt>
<trkpt lat="50.479194" lon="3.651708"><time>2026-05-03T02:45:03Z</time></trkpt>
<trkpt lat="50.479401" lon="3.651691"><time>2026-05-03T02:55:03Z</time></trkpt>
<trkpt lat="50.479509" lon="3.651675"><time>2026-05-03T03:05:03Z</time></trkpt>
<trkpt lat="50.479742" lon="3.651559"><time>2026-05-03T03:15:03Z</time></trkpt>
<trkpt lat="50.480091" lon="3.651370"><time>2026-05-03T03:25:03Z</time></trkpt>
<trkpt lat="50.480441" lon="3.651210"><time>2026-05-03T03:35:03Z</time></trkpt>
<trkpt lat="50.480611" lon="3.651095"><time>2026-05-03T03:45:03Z</time></trkpt>
<trkpt lat="50.480799" lon="3.650965"><time>2026-05-03T03:55:03Z</time></trkpt>
</trkseg>
</trk>
<trk>
<name>hbnbn22</name>
<cmt>v</cmt>
<desc>Bernissart Sentier n°22 </desc>
<link href="https://chemins.be/bernissart/sentier/22"/><trkseg>
<trkpt lat="50.471862" lon="3.644946"><time>2026-05-03T00:05:03Z</time></trkpt>
<trkpt lat="50.470955" lon="3.640891"><time>2026-05-03T00:15:03Z</time></trkpt>
<trkpt lat="50.470344" lon="3.639148"><time>2026-05-03T00:25:03Z</time></trkpt>
<trkpt lat="50.469131" lon="3.638131"><time>2026-05-03T00:35:03Z</time></trkpt>
<trkpt lat="50.468825" lon="3.637359"><time>2026-05-03T00:45:03Z</time></trkpt>
</trkseg></trk>
<trk>
<name>hbnbn22</name>
<cmt>q</cmt>
<desc>Bernissart Sentier n°22 </desc>
<link href="https://chemins.be/bernissart/sentier/22"/><trkseg>
<trkpt lat="50.468825" lon="3.637359"><time>2026-05-03T00:45:03Z</time></trkpt>
<trkpt lat="50.467885" lon="3.638354"><time>2026-05-03T00:55:03Z</time></trkpt>
<trkpt lat="50.466924" lon="3.639534"><time>2026-05-03T01:05:03Z</time></trkpt>
</trkseg>
</trk>
<trk>
<name>hbnbn23</name>
<cmt>v</cmt>
<desc>Bernissart Sentier n°23 </desc>
<link href="https://chemins.be/bernissart/sentier/23"/><trkseg>
<trkpt lat="50.475106" lon="3.660788"><time>2026-05-03T00:05:03Z</time></trkpt>
<trkpt lat="50.475458" lon="3.660834"><time>2026-05-03T00:15:03Z</time></trkpt>
<trkpt lat="50.475516" lon="3.660840"><time>2026-05-03T00:25:03Z</time></trkpt>
<trkpt lat="50.475544" lon="3.660843"><time>2026-05-03T00:35:03Z</time></trkpt>
<trkpt lat="50.475605" lon="3.660820"><time>2026-05-03T00:45:03Z</time></trkpt>
<trkpt lat="50.475610" lon="3.660710"><time>2026-05-03T00:55:03Z</time></trkpt>
<trkpt lat="50.475594" lon="3.660646"><time>2026-05-03T01:05:03Z</time></trkpt>
<trkpt lat="50.475843" lon="3.660207"><time>2026-05-03T01:15:03Z</time></trkpt>
<trkpt lat="50.476126" lon="3.659710"><time>2026-05-03T01:25:03Z</time></trkpt>
<trkpt lat="50.476268" lon="3.659460"><time>2026-05-03T01:35:03Z</time></trkpt>
<trkpt lat="50.476389" lon="3.659247"><time>2026-05-03T01:45:03Z</time></trkpt>
<trkpt lat="50.476462" lon="3.659124"><time>2026-05-03T01:55:03Z</time></trkpt>
<trkpt lat="50.476736" lon="3.658668"><time>2026-05-03T02:05:03Z</time></trkpt>
<trkpt lat="50.477000" lon="3.658226"><time>2026-05-03T02:15:03Z</time></trkpt>
<trkpt lat="50.477068" lon="3.658113"><time>2026-05-03T02:25:03Z</time></trkpt>
<trkpt lat="50.477272" lon="3.657815"><time>2026-05-03T02:35:03Z</time></trkpt>
<trkpt lat="50.477895" lon="3.657350"><time>2026-05-03T02:45:03Z</time></trkpt>
<trkpt lat="50.478109" lon="3.657239"><time>2026-05-03T02:55:03Z</time></trkpt>
</trkseg></trk>
<trk>
<name>hbnbn23</name>
<cmt>q</cmt>
<desc>Bernissart Sentier n°23 </desc>
<link href="https://chemins.be/bernissart/sentier/23"/><trkseg>
<trkpt lat="50.478109" lon="3.657239"><time>2026-05-03T02:55:03Z</time></trkpt>
<trkpt lat="50.479163" lon="3.656969"><time>2026-05-03T03:05:03Z</time></trkpt>
<trkpt lat="50.479449" lon="3.657283"><time>2026-05-03T03:15:03Z</time></trkpt>
<trkpt lat="50.479424" lon="3.657092"><time>2026-05-03T03:25:03Z</time></trkpt>
</trkseg>
</trk>
<trk>
<name>hbnbn24</name>
<cmt>q</cmt>
<desc>Bernissart Sentier n°24 </desc>
<link href="https://chemins.be/bernissart/sentier/24"/><trkseg>
<trkpt lat="50.476511" lon="3.653499"><time>2026-05-03T00:05:03Z</time></trkpt>
<trkpt lat="50.477090" lon="3.654924"><time>2026-05-03T00:15:03Z</time></trkpt>
<trkpt lat="50.477769" lon="3.655587"><time>2026-05-03T00:25:03Z</time></trkpt>
<trkpt lat="50.479307" lon="3.657089"><time>2026-05-03T00:35:03Z</time></trkpt>
</trkseg>
</trk>
<trk>
<name>hbnbn24bis</name>
<cmt>v</cmt>
<desc>Bernissart Sentier n°24bis </desc>
<link href="https://chemins.be/bernissart/sentier/24bis"/><trkseg>
<trkpt lat="50.479411" lon="3.657119"><time>2026-05-03T00:05:03Z</time></trkpt>
<trkpt lat="50.479518" lon="3.657771"><time>2026-05-03T00:15:03Z</time></trkpt>
<trkpt lat="50.479114" lon="3.658050"><time>2026-05-03T00:25:03Z</time></trkpt>
</trkseg>
</trk>
<trk>
<name>hbnbn25</name>
<cmt>r</cmt>
<desc>Bernissart Sentier n°25 Rue du Château</desc>
<link href="https://chemins.be/bernissart/sentier/25"/><trkseg>
<trkpt lat="50.475853" lon="3.651373"><time>2026-05-03T00:05:03Z</time></trkpt>
<trkpt lat="50.475446" lon="3.652561"><time>2026-05-03T00:15:03Z</time></trkpt>
<trkpt lat="50.475397" lon="3.652935"><time>2026-05-03T00:25:03Z</time></trkpt>
</trkseg></trk>
<trk>
<name>hbnbn25</name>
<cmt>q</cmt>
<desc>Bernissart Sentier n°25 Rue du Château</desc>
<link href="https://chemins.be/bernissart/sentier/25"/><trkseg>
<trkpt lat="50.475397" lon="3.652935"><time>2026-05-03T00:25:03Z</time></trkpt>
<trkpt lat="50.474785" lon="3.655439"><time>2026-05-03T00:35:03Z</time></trkpt>
<trkpt lat="50.475014" lon="3.655525"><time>2026-05-03T00:45:03Z</time></trkpt>
<trkpt lat="50.474686" lon="3.657258"><time>2026-05-03T00:55:03Z</time></trkpt>
<trkpt lat="50.474353" lon="3.657473"><time>2026-05-03T01:05:03Z</time></trkpt>
</trkseg>
</trk>
<trk>
<name>hbnbn26</name>
<cmt>q</cmt>
<desc>Bernissart Sentier n°26 </desc>
<link href="https://chemins.be/bernissart/sentier/26"/><trkseg>
<trkpt lat="50.479653" lon="3.643940"><time>2026-05-03T00:05:03Z</time></trkpt>
<trkpt lat="50.481340" lon="3.644729"><time>2026-05-03T00:15:03Z</time></trkpt>
<trkpt lat="50.482231" lon="3.644352"><time>2026-05-03T00:25:03Z</time></trkpt>
<trkpt lat="50.485040" lon="3.642197"><time>2026-05-03T00:35:03Z</time></trkpt>
</trkseg>
</trk>
<trk>
<name>hbnbn27</name>
<cmt>q</cmt>
<desc>Bernissart Sentier n°27 </desc>
<link href="https://chemins.be/bernissart/sentier/27"/><trkseg>
<trkpt lat="50.481454" lon="3.645165"><time>2026-05-03T00:05:03Z</time></trkpt>
<trkpt lat="50.479679" lon="3.645877"><time>2026-05-03T00:15:03Z</time></trkpt>
</trkseg></trk>
<trk>
<name>hbnbn27</name>
<cmt>v</cmt>
<desc>Bernissart Sentier n°27 </desc>
<link href="https://chemins.be/bernissart/sentier/27"/><trkseg>
<trkpt lat="50.479679" lon="3.645877"><time>2026-05-03T00:15:03Z</time></trkpt>
<trkpt lat="50.478830" lon="3.646240"><time>2026-05-03T00:25:03Z</time></trkpt>
<trkpt lat="50.478272" lon="3.646025"><time>2026-05-03T00:35:03Z</time></trkpt>
<trkpt lat="50.477946" lon="3.646719"><time>2026-05-03T00:45:03Z</time></trkpt>
<trkpt lat="50.477601" lon="3.647454"><time>2026-05-03T00:55:03Z</time></trkpt>
</trkseg></trk>
<trk>
<name>hbnbn27</name>
<cmt>q</cmt>
<desc>Bernissart Sentier n°27 </desc>
<link href="https://chemins.be/bernissart/sentier/27"/><trkseg>
<trkpt lat="50.477601" lon="3.647454"><time>2026-05-03T00:55:03Z</time></trkpt>
<trkpt lat="50.476683" lon="3.648420"><time>2026-05-03T01:05:03Z</time></trkpt>
<trkpt lat="50.475694" lon="3.648952"><time>2026-05-03T01:15:03Z</time></trkpt>
</trkseg>
</trk>
<trk>
<name>hbnbn27bis</name>
<cmt>v</cmt>
<desc>Bernissart Sentier n°27bis </desc>
<link href="https://chemins.be/bernissart/sentier/27bis"/><trkseg>
<trkpt lat="50.476796" lon="3.646775"><time>2026-05-03T00:05:03Z</time></trkpt>
<trkpt lat="50.477222" lon="3.647312"><time>2026-05-03T00:15:03Z</time></trkpt>
<trkpt lat="50.477575" lon="3.647483"><time>2026-05-03T00:25:03Z</time></trkpt>
</trkseg>
</trk>
<trk>
<name>hbnbn28</name>
<cmt>r</cmt>
<desc>Bernissart Sentier n°28 </desc>
<link href="https://chemins.be/bernissart/sentier/28"/><trkseg>
<trkpt lat="50.478270" lon="3.646047"><time>2026-05-03T00:05:03Z</time></trkpt>
<trkpt lat="50.478357" lon="3.645378"><time>2026-05-03T00:15:03Z</time></trkpt>
</trkseg></trk>
<trk>
<name>hbnbn28</name>
<cmt>q</cmt>
<desc>Bernissart Sentier n°28 </desc>
<link href="https://chemins.be/bernissart/sentier/28"/><trkseg>
<trkpt lat="50.478357" lon="3.645378"><time>2026-05-03T00:15:03Z</time></trkpt>
<trkpt lat="50.478507" lon="3.644236"><time>2026-05-03T00:25:03Z</time></trkpt>
</trkseg></trk>
<trk>
<name>hbnbn28</name>
<cmt>v</cmt>
<desc>Bernissart Sentier n°28 </desc>
<link href="https://chemins.be/bernissart/sentier/28"/><trkseg>
<trkpt lat="50.478507" lon="3.644236"><time>2026-05-03T00:25:03Z</time></trkpt>
<trkpt lat="50.478412" lon="3.642575"><time>2026-05-03T00:35:03Z</time></trkpt>
<trkpt lat="50.478515" lon="3.642455"><time>2026-05-03T00:45:03Z</time></trkpt>
</trkseg></trk>
<trk>
<name>hbnbn28</name>
<cmt>r</cmt>
<desc>Bernissart Sentier n°28 </desc>
<link href="https://chemins.be/bernissart/sentier/28"/><trkseg>
<trkpt lat="50.478515" lon="3.642455"><time>2026-05-03T00:45:03Z</time></trkpt>
<trkpt lat="50.478458" lon="3.642215"><time>2026-05-03T00:55:03Z</time></trkpt>
</trkseg></trk>
<trk>
<name>hbnbn28</name>
<cmt>q</cmt>
<desc>Bernissart Sentier n°28 </desc>
<link href="https://chemins.be/bernissart/sentier/28"/><trkseg>
<trkpt lat="50.478458" lon="3.642215"><time>2026-05-03T00:55:03Z</time></trkpt>
<trkpt lat="50.479395" lon="3.639588"><time>2026-05-03T01:05:03Z</time></trkpt>
</trkseg>
</trk>
<trk>
<name>hbnbn29</name>
<cmt>v</cmt>
<desc>Bernissart Sentier n°29 </desc>
<link href="https://chemins.be/bernissart/sentier/29"/><trkseg>
<trkpt lat="50.479952" lon="3.639131"><time>2026-05-03T00:05:03Z</time></trkpt>
<trkpt lat="50.477849" lon="3.641062"><time>2026-05-03T00:15:03Z</time></trkpt>
</trkseg></trk>
<trk>
<name>hbnbn29</name>
<cmt>q</cmt>
<desc>Bernissart Sentier n°29 </desc>
<link href="https://chemins.be/bernissart/sentier/29"/><trkseg>
<trkpt lat="50.477849" lon="3.641062"><time>2026-05-03T00:15:03Z</time></trkpt>
<trkpt lat="50.476620" lon="3.642212"><time>2026-05-03T00:25:03Z</time></trkpt>
<trkpt lat="50.476139" lon="3.644289"><time>2026-05-03T00:35:03Z</time></trkpt>
<trkpt lat="50.475424" lon="3.645062"><time>2026-05-03T00:45:03Z</time></trkpt>
<trkpt lat="50.474550" lon="3.647362"><time>2026-05-03T00:55:03Z</time></trkpt>
</trkseg>
</trk>
<trk>
<name>hbnbn30</name>
<cmt>v</cmt>
<desc>Bernissart Sentier n°30 </desc>
<link href="https://chemins.be/bernissart/sentier/30"/><trkseg>
<trkpt lat="50.479111" lon="3.635080"><time>2026-05-03T00:05:03Z</time></trkpt>
<trkpt lat="50.476604" lon="3.637586"><time>2026-05-03T00:15:03Z</time></trkpt>
</trkseg>
</trk>
<trk>
<name>hbnbn31</name>
<cmt>q</cmt>
<desc>Bernissart Sentier n°31 </desc>
<link href="https://chemins.be/bernissart/sentier/31"/><trkseg>
<trkpt lat="50.474689" lon="3.642318"><time>2026-05-03T00:05:03Z</time></trkpt>
<trkpt lat="50.475408" lon="3.642880"><time>2026-05-03T00:15:03Z</time></trkpt>
<trkpt lat="50.475845" lon="3.643875"><time>2026-05-03T00:25:03Z</time></trkpt>
<trkpt lat="50.476134" lon="3.643558"><time>2026-05-03T00:35:03Z</time></trkpt>
<trkpt lat="50.476251" lon="3.643852"><time>2026-05-03T00:45:03Z</time></trkpt>
<trkpt lat="50.477205" lon="3.646021"><time>2026-05-03T00:55:03Z</time></trkpt>
</trkseg>
</trk>
<trk>
<name>hbnbn32</name>
<cmt>q</cmt>
<desc>Bernissart Sentier n°32 </desc>
<link href="https://chemins.be/bernissart/sentier/32"/><trkseg>
<trkpt lat="50.474577" lon="3.642768"><time>2026-05-03T00:05:03Z</time></trkpt>
<trkpt lat="50.475405" lon="3.645030"><time>2026-05-03T00:15:03Z</time></trkpt>
<trkpt lat="50.475337" lon="3.645407"><time>2026-05-03T00:25:03Z</time></trkpt>
<trkpt lat="50.475812" lon="3.646772"><time>2026-05-03T00:35:03Z</time></trkpt>
<trkpt lat="50.476120" lon="3.647231"><time>2026-05-03T00:45:03Z</time></trkpt>
</trkseg></trk>
<trk>
<name>hbnbn32</name>
<cmt>v</cmt>
<desc>Bernissart Sentier n°32 </desc>
<link href="https://chemins.be/bernissart/sentier/32"/><trkseg>
<trkpt lat="50.476120" lon="3.647231"><time>2026-05-03T00:45:03Z</time></trkpt>
<trkpt lat="50.475752" lon="3.647493"><time>2026-05-03T00:55:03Z</time></trkpt>
</trkseg></trk>
<trk>
<name>hbnbn32</name>
<cmt>q</cmt>
<desc>Bernissart Sentier n°32 </desc>
<link href="https://chemins.be/bernissart/sentier/32"/><trkseg>
<trkpt lat="50.475752" lon="3.647493"><time>2026-05-03T00:55:03Z</time></trkpt>
<trkpt lat="50.475825" lon="3.648103"><time>2026-05-03T01:05:03Z</time></trkpt>
<trkpt lat="50.475962" lon="3.648390"><time>2026-05-03T01:15:03Z</time></trkpt>
</trkseg>
</trk>
<trk>
<name>hbnbn33</name>
<cmt>v</cmt>
<desc>Bernissart Sentier n°33 </desc>
<link href="https://chemins.be/bernissart/sentier/33"/><trkseg>
<trkpt lat="50.474629" lon="3.647708"><time>2026-05-03T00:05:03Z</time></trkpt>
<trkpt lat="50.474198" lon="3.646034"><time>2026-05-03T00:15:03Z</time></trkpt>
<trkpt lat="50.474367" lon="3.645588"><time>2026-05-03T00:25:03Z</time></trkpt>
<trkpt lat="50.473709" lon="3.644240"><time>2026-05-03T00:35:03Z</time></trkpt>
</trkseg>
</trk>
<trk>
<name>hbnbn35</name>
<cmt>v</cmt>
<desc>Bernissart Sentier n°35 </desc>
<link href="https://chemins.be/bernissart/sentier/35"/><trkseg>
<trkpt lat="50.476800" lon="3.646779"><time>2026-05-03T00:05:03Z</time></trkpt>
<trkpt lat="50.475500" lon="3.647671"><time>2026-05-03T00:15:03Z</time></trkpt>
<trkpt lat="50.475113" lon="3.647405"><time>2026-05-03T00:25:03Z</time></trkpt>
<trkpt lat="50.474566" lon="3.647714"><time>2026-05-03T00:35:03Z</time></trkpt>
</trkseg>
</trk>
<trk>
<name>hbnbn36</name>
<cmt>q</cmt>
<desc>Bernissart Sentier n°36 </desc>
<link href="https://chemins.be/bernissart/sentier/36"/><trkseg>
<trkpt lat="50.473420" lon="3.641423"><time>2026-05-03T00:05:03Z</time></trkpt>
<trkpt lat="50.472528" lon="3.641974"><time>2026-05-03T00:15:03Z</time></trkpt>
<trkpt lat="50.472179" lon="3.642056"><time>2026-05-03T00:25:03Z</time></trkpt>
</trkseg>
</trk>
<trk>
<name>hbnbn37</name>
<cmt>q</cmt>
<desc>Bernissart Sentier n°37 </desc>
<link href="https://chemins.be/bernissart/sentier/37"/><trkseg>
<trkpt lat="50.472974" lon="3.640833"><time>2026-05-03T00:05:03Z</time></trkpt>
<trkpt lat="50.472507" lon="3.640073"><time>2026-05-03T00:15:03Z</time></trkpt>
<trkpt lat="50.472073" lon="3.638125"><time>2026-05-03T00:25:03Z</time></trkpt>
<trkpt lat="50.471709" lon="3.636751"><time>2026-05-03T00:35:03Z</time></trkpt>
<trkpt lat="50.471330" lon="3.635116"><time>2026-05-03T00:45:03Z</time></trkpt>
</trkseg>
</trk>
<trk>
<name>hbnbn38</name>
<cmt>q</cmt>
<desc>Bernissart Sentier n°38 </desc>
<link href="https://chemins.be/bernissart/sentier/38"/><trkseg>
<trkpt lat="50.485711" lon="3.663829"><time>2026-05-03T00:05:03Z</time></trkpt>
<trkpt lat="50.485439" lon="3.663378"><time>2026-05-03T00:15:03Z</time></trkpt>
<trkpt lat="50.486185" lon="3.662144"><time>2026-05-03T00:25:03Z</time></trkpt>
<trkpt lat="50.485996" lon="3.661897"><time>2026-05-03T00:35:03Z</time></trkpt>
<trkpt lat="50.486280" lon="3.660513"><time>2026-05-03T00:45:03Z</time></trkpt>
<trkpt lat="50.486155" lon="3.660209"><time>2026-05-03T00:55:03Z</time></trkpt>
<trkpt lat="50.487004" lon="3.658343"><time>2026-05-03T01:05:03Z</time></trkpt>
<trkpt lat="50.487218" lon="3.657524"><time>2026-05-03T01:15:03Z</time></trkpt>
</trkseg>
</trk>
<trk>
<name>hbnbn39</name>
<cmt>q</cmt>
<desc>Bernissart Sentier n°39 </desc>
<link href="https://chemins.be/bernissart/sentier/39"/><trkseg>
<trkpt lat="50.485863" lon="3.662694"><time>2026-05-03T00:05:03Z</time></trkpt>
<trkpt lat="50.484151" lon="3.660248"><time>2026-05-03T00:15:03Z</time></trkpt>
<trkpt lat="50.483737" lon="3.659096"><time>2026-05-03T00:25:03Z</time></trkpt>
<trkpt lat="50.482877" lon="3.658553"><time>2026-05-03T00:35:03Z</time></trkpt>
<trkpt lat="50.482975" lon="3.657471"><time>2026-05-03T00:45:03Z</time></trkpt>
<trkpt lat="50.481819" lon="3.656584"><time>2026-05-03T00:55:03Z</time></trkpt>
<trkpt lat="50.480854" lon="3.655153"><time>2026-05-03T01:05:03Z</time></trkpt>
</trkseg>
</trk>
<trk>
<name>hbnbn40</name>
<cmt>v</cmt>
<desc>Bernissart Sentier n°40 </desc>
<link href="https://chemins.be/bernissart/sentier/40"/><trkseg>
<trkpt lat="50.478985" lon="3.634359"><time>2026-05-03T00:05:03Z</time></trkpt>
<trkpt lat="50.479941" lon="3.632619"><time>2026-05-03T00:15:03Z</time></trkpt>
</trkseg>
</trk>
<trk>
<name>hbnbn41</name>
<cmt>q</cmt>
<desc>Bernissart Sentier n°41 </desc>
<link href="https://chemins.be/bernissart/sentier/41"/><trkseg>
<trkpt lat="50.486135" lon="3.660174"><time>2026-05-03T00:05:03Z</time></trkpt>
<trkpt lat="50.485978" lon="3.659762"><time>2026-05-03T00:15:03Z</time></trkpt>
<trkpt lat="50.484760" lon="3.658589"><time>2026-05-03T00:25:03Z</time></trkpt>
</trkseg>
</trk>
<trk>
<name>hbnbn42</name>
<cmt>q</cmt>
<desc>Bernissart Sentier n°42 </desc>
<link href="https://chemins.be/bernissart/sentier/42"/><trkseg>
<trkpt lat="50.483217" lon="3.654237"><time>2026-05-03T00:05:03Z</time></trkpt>
<trkpt lat="50.483547" lon="3.652613"><time>2026-05-03T00:15:03Z</time></trkpt>
<trkpt lat="50.483850" lon="3.650754"><time>2026-05-03T00:25:03Z</time></trkpt>
</trkseg>
</trk>
<trk>
<name>hbnbn43</name>
<cmt>v</cmt>
<desc>Bernissart Sentier n°43 </desc>
<link href="https://chemins.be/bernissart/sentier/43"/><trkseg>
<trkpt lat="50.472805" lon="3.645146"><time>2026-05-03T00:05:03Z</time></trkpt>
<trkpt lat="50.472671" lon="3.644978"><time>2026-05-03T00:15:03Z</time></trkpt>
<trkpt lat="50.471879" lon="3.644839"><time>2026-05-03T00:25:03Z</time></trkpt>
</trkseg></trk>
<trk>
<name>hbnbn43</name>
<cmt>d</cmt>
<desc>Bernissart Sentier n°43 </desc>
<link href="https://chemins.be/bernissart/sentier/43"/><trkseg>
<trkpt lat="50.471879" lon="3.644839"><time>2026-05-03T00:25:03Z</time></trkpt>
<trkpt lat="50.470772" lon="3.645283"><time>2026-05-03T00:35:03Z</time></trkpt>
<trkpt lat="50.469633" lon="3.647030"><time>2026-05-03T00:45:03Z</time></trkpt>
<trkpt lat="50.469233" lon="3.647257"><time>2026-05-03T00:55:03Z</time></trkpt>
<trkpt lat="50.467328" lon="3.648339"><time>2026-05-03T01:05:03Z</time></trkpt>
<trkpt lat="50.466670" lon="3.648304"><time>2026-05-03T01:15:03Z</time></trkpt>
<trkpt lat="50.464329" lon="3.648269"><time>2026-05-03T01:25:03Z</time></trkpt>
<trkpt lat="50.464225" lon="3.648334"><time>2026-05-03T01:35:03Z</time></trkpt>
</trkseg>
</trk>
<trk>
<name>hbnbn43bis</name>
<cmt>q</cmt>
<desc>Bernissart Sentier n°43bis </desc>
<link href="https://chemins.be/bernissart/sentier/43bis"/><trkseg>
<trkpt lat="50.464165" lon="3.647036"><time>2026-05-03T00:05:03Z</time></trkpt>
<trkpt lat="50.463763" lon="3.647055"><time>2026-05-03T00:15:03Z</time></trkpt>
</trkseg>
</trk>
<trk>
<name>hbnbn44</name>
<cmt>r</cmt>
<desc>Bernissart Sentier n°44 </desc>
<link href="https://chemins.be/bernissart/sentier/44"/><trkseg>
<trkpt lat="50.475885" lon="3.651347"><time>2026-05-03T00:05:03Z</time></trkpt>
<trkpt lat="50.476320" lon="3.649625"><time>2026-05-03T00:15:03Z</time></trkpt>
</trkseg></trk>
<trk>
<name>hbnbn44</name>
<cmt>v</cmt>
<desc>Bernissart Sentier n°44 </desc>
<link href="https://chemins.be/bernissart/sentier/44"/><trkseg>
<trkpt lat="50.476320" lon="3.649625"><time>2026-05-03T00:15:03Z</time></trkpt>
<trkpt lat="50.476451" lon="3.649201"><time>2026-05-03T00:25:03Z</time></trkpt>
</trkseg></trk>
<trk>
<name>hbnbn44</name>
<cmt>q</cmt>
<desc>Bernissart Sentier n°44 </desc>
<link href="https://chemins.be/bernissart/sentier/44"/><trkseg>
<trkpt lat="50.476451" lon="3.649201"><time>2026-05-03T00:25:03Z</time></trkpt>
<trkpt lat="50.476552" lon="3.648484"><time>2026-05-03T00:35:03Z</time></trkpt>
</trkseg>
</trk>
<trk>
<name>hbnbn45</name>
<cmt>q</cmt>
<desc>Bernissart Sentier n°45 Rue Kéverlèches</desc>
<link href="https://chemins.be/bernissart/sentier/45"/><trkseg>
<trkpt lat="50.475170" lon="3.634739"><time>2026-05-03T00:05:03Z</time></trkpt>
<trkpt lat="50.474733" lon="3.633026"><time>2026-05-03T00:15:03Z</time></trkpt>
</trkseg>
</trk>
<trk>
<name>hbnbn46</name>
<cmt>q</cmt>
<desc>Bernissart Sentier n°46 Rue Grande</desc>
<link href="https://chemins.be/bernissart/sentier/46"/><trkseg>
<trkpt lat="50.473930" lon="3.649266"><time>2026-05-03T00:05:03Z</time></trkpt>
<trkpt lat="50.472499" lon="3.649690"><time>2026-05-03T00:15:03Z</time></trkpt>
</trkseg></trk>
<trk>
<name>hbnbn46</name>
<cmt>r</cmt>
<desc>Bernissart Sentier n°46 Rue Grande</desc>
<link href="https://chemins.be/bernissart/sentier/46"/><trkseg>
<trkpt lat="50.472499" lon="3.649690"><time>2026-05-03T00:15:03Z</time></trkpt>
<trkpt lat="50.472305" lon="3.648987"><time>2026-05-03T00:25:03Z</time></trkpt>
</trkseg></trk>
<trk>
<name>hbnbn46</name>
<cmt>q</cmt>
<desc>Bernissart Sentier n°46 Rue Grande</desc>
<link href="https://chemins.be/bernissart/sentier/46"/><trkseg>
<trkpt lat="50.472305" lon="3.648987"><time>2026-05-03T00:25:03Z</time></trkpt>
<trkpt lat="50.471731" lon="3.649330"><time>2026-05-03T00:35:03Z</time></trkpt>
<trkpt lat="50.471005" lon="3.648755"><time>2026-05-03T00:45:03Z</time></trkpt>
<trkpt lat="50.469857" lon="3.648587"><time>2026-05-03T00:55:03Z</time></trkpt>
<trkpt lat="50.468839" lon="3.647472"><time>2026-05-03T01:05:03Z</time></trkpt>
</trkseg>
</trk>
<trk>
<name>hbnbn47</name>
<cmt>v</cmt>
<desc>Bernissart Sentier n°47 </desc>
<link href="https://chemins.be/bernissart/sentier/47"/><trkseg>
<trkpt lat="50.471327" lon="3.649719"><time>2026-05-03T00:05:03Z</time></trkpt>
<trkpt lat="50.471307" lon="3.650540"><time>2026-05-03T00:15:03Z</time></trkpt>
<trkpt lat="50.471648" lon="3.652149"><time>2026-05-03T00:25:03Z</time></trkpt>
<trkpt lat="50.471669" lon="3.652584"><time>2026-05-03T00:35:03Z</time></trkpt>
<trkpt lat="50.471361" lon="3.653260"><time>2026-05-03T00:45:03Z</time></trkpt>
</trkseg>
</trk>
<trk>
<name>hbnbn48</name>
<cmt>v</cmt>
<desc>Bernissart Sentier n°48 Rue du Marais</desc>
<link href="https://chemins.be/bernissart/sentier/48"/><trkseg>
<trkpt lat="50.463301" lon="3.643385"><time>2026-05-03T00:05:03Z</time></trkpt>
<trkpt lat="50.463919" lon="3.645150"><time>2026-05-03T00:15:03Z</time></trkpt>
<trkpt lat="50.464174" lon="3.647247"><time>2026-05-03T00:25:03Z</time></trkpt>
</trkseg></trk>
<trk>
<name>hbnbn48</name>
<cmt>r</cmt>
<desc>Bernissart Sentier n°48 Rue du Marais</desc>
<link href="https://chemins.be/bernissart/sentier/48"/><trkseg>
<trkpt lat="50.464174" lon="3.647247"><time>2026-05-03T00:25:03Z</time></trkpt>
<trkpt lat="50.464334" lon="3.648278"><time>2026-05-03T00:35:03Z</time></trkpt>
<trkpt lat="50.464595" lon="3.649183"><time>2026-05-03T00:45:03Z</time></trkpt>
<trkpt lat="50.464247" lon="3.650594"><time>2026-05-03T00:55:03Z</time></trkpt>
<trkpt lat="50.463722" lon="3.651334"><time>2026-05-03T01:05:03Z</time></trkpt>
<trkpt lat="50.463697" lon="3.652244"><time>2026-05-03T01:15:03Z</time></trkpt>
</trkseg></trk>
<trk>
<name>hbnbn48</name>
<cmt>v</cmt>
<desc>Bernissart Sentier n°48 Rue du Marais</desc>
<link href="https://chemins.be/bernissart/sentier/48"/><trkseg>
<trkpt lat="50.463697" lon="3.652244"><time>2026-05-03T01:15:03Z</time></trkpt>
<trkpt lat="50.463662" lon="3.653473"><time>2026-05-03T01:25:03Z</time></trkpt>
<trkpt lat="50.463170" lon="3.654445"><time>2026-05-03T01:35:03Z</time></trkpt>
<trkpt lat="50.462993" lon="3.655348"><time>2026-05-03T01:45:03Z</time></trkpt>
</trkseg></trk>
<trk>
<name>hbnbn48</name>
<cmt>q</cmt>
<desc>Bernissart Sentier n°48 Rue du Marais</desc>
<link href="https://chemins.be/bernissart/sentier/48"/><trkseg>
<trkpt lat="50.462993" lon="3.655348"><time>2026-05-03T01:45:03Z</time></trkpt>
<trkpt lat="50.462761" lon="3.656529"><time>2026-05-03T01:55:03Z</time></trkpt>
<trkpt lat="50.464350" lon="3.660228"><time>2026-05-03T02:05:03Z</time></trkpt>
</trkseg>
</trk>
<trk>
<name>hbnbn9</name>
<cmt>v</cmt>
<desc>Bernissart Chemin n°9 Rue du Marais</desc>
<link href="https://chemins.be/bernissart/chemin/9"/><trkseg>
<trkpt lat="50.464170" lon="3.647217"><time>2026-05-03T00:05:03Z</time></trkpt>
<trkpt lat="50.463905" lon="3.645108"><time>2026-05-03T00:15:03Z</time></trkpt>
<trkpt lat="50.463777" lon="3.644744"><time>2026-05-03T00:25:03Z</time></trkpt>
</trkseg>
</trk>
<trk>
<name>hbnbni1</name>
<cmt>v</cmt>
<desc>Bernissart Sentier n°i1 </desc>
<link href="https://chemins.be/bernissart/sentier/i1"/><trkseg>
<trkpt lat="50.478537" lon="3.652568"><time>2026-05-03T00:05:03Z</time></trkpt>
<trkpt lat="50.478658" lon="3.651727"><time>2026-05-03T00:15:03Z</time></trkpt>
</trkseg>
</trk>
<trk>
<name>hbnbni2</name>
<cmt>v</cmt>
<desc>Bernissart Chemin n°i2 </desc>
<link href="https://chemins.be/bernissart/chemin/i2"/><trkseg>
<trkpt lat="50.479114" lon="3.658050"><time>2026-05-03T00:05:03Z</time></trkpt>
<trkpt lat="50.478423" lon="3.658428"><time>2026-05-03T00:15:03Z</time></trkpt>
<trkpt lat="50.478106" lon="3.657239"><time>2026-05-03T00:25:03Z</time></trkpt>
</trkseg>
</trk>
<trk>
<name>hbnbnL78A</name>
<cmt>v</cmt>
<desc>Bernissart Chemin n°L78A RAVeL L78A / RAVeL</desc>
<link href="https://chemins.be/bernissart/chemin/L78A"/><trkseg>
<trkpt lat="50.463094" lon="3.659747"><time>2026-05-03T00:05:03Z</time></trkpt>
<trkpt lat="50.467169" lon="3.649342"><time>2026-05-03T00:15:03Z</time></trkpt>
<trkpt lat="50.469964" lon="3.642046"><time>2026-05-03T00:25:03Z</time></trkpt>
<trkpt lat="50.470985" lon="3.640912"><time>2026-05-03T00:35:03Z</time></trkpt>
<trkpt lat="50.472313" lon="3.640215"><time>2026-05-03T00:45:03Z</time></trkpt>
<trkpt lat="50.473800" lon="3.639961"><time>2026-05-03T00:55:03Z</time></trkpt>
<trkpt lat="50.474935" lon="3.640387"><time>2026-05-03T01:05:03Z</time></trkpt>
<trkpt lat="50.475739" lon="3.640705"><time>2026-05-03T01:15:03Z</time></trkpt>
<trkpt lat="50.477921" lon="3.640902"><time>2026-05-03T01:25:03Z</time></trkpt>
<trkpt lat="50.478977" lon="3.641646"><time>2026-05-03T01:35:03Z</time></trkpt>
<trkpt lat="50.479724" lon="3.643763"><time>2026-05-03T01:45:03Z</time></trkpt>
<trkpt lat="50.480667" lon="3.646994"><time>2026-05-03T01:55:03Z</time></trkpt>
<trkpt lat="50.481089" lon="3.648382"><time>2026-05-03T02:05:03Z</time></trkpt>
<trkpt lat="50.481409" lon="3.649265"><time>2026-05-03T02:15:03Z</time></trkpt>
<trkpt lat="50.481754" lon="3.649753"><time>2026-05-03T02:25:03Z</time></trkpt>
<trkpt lat="50.481971" lon="3.649975"><time>2026-05-03T02:35:03Z</time></trkpt>
<trkpt lat="50.482777" lon="3.650879"><time>2026-05-03T02:45:03Z</time></trkpt>
<trkpt lat="50.485547" lon="3.654064"><time>2026-05-03T02:55:03Z</time></trkpt>
<trkpt lat="50.486842" lon="3.655496"><time>2026-05-03T03:05:03Z</time></trkpt>
<trkpt lat="50.488139" lon="3.657623"><time>2026-05-03T03:15:03Z</time></trkpt>
<trkpt lat="50.489207" lon="3.659885"><time>2026-05-03T03:25:03Z</time></trkpt>
</trkseg>
</trk>
</gpx>